Location: Evensen
(52.5775°N, 9.5258°E)
Time: 13:34:45
(UTC+00:00)

Cosmos 990 Rocket - Pass Details

Date: 15 May 2026
Orbit: 742 x 763 km, 74.0° (Epoch: 11 June)

Event Time Altitude Azimuth Distance (km) Brightness Sun altitude
Rises 21:15:07 0° 333° (NNW) 3,207 9.3 -13.6°
Reaches altitude 10° 21:17:29 10° 332° (NNW) 2,282 7.9 -13.7°
Maximum altitude 21:22:39 79° 247° (WSW) 774 4.0 -14.1°
Enters shadow 21:26:06 22° 163° (SSE) 1,628 5.1 -14.4°
